Regional Weather Roundup
Issued by NWS

Home | Current Version | Previous Version | Graphics & Text | Print | Product List | Glossary On
Versions: 1 2 3 4 5 6 7 8 9 10 11 12 13 14 15 16 17 18 19 20 21 22 23 24 25 26 27 28 29 30 31 32 33 34 35 36 37 38 39 40 41 42 43 44 45 46 47 48 49 50
000
ASUS44 KMEG 300310
RWRTN
TENNESSEE HOURLY STATE WEATHER ROUNDUP
NATIONAL WEATHER SERVICE MEMPHIS TN
1000 PM CDT MON SEP 29 2014

TNZ002-004-019-021-049-052-054-088>092-300400-
WEST TENNESSEE

CITY           SKY/WX    TMP DP  RH WIND       PRES   REMARKS
MEMPHIS INTL   CLEAR     73  59  61 CALM      29.95S
NWS MEMPHIS      N/A     66 N/A N/A MISG        N/A
JACKSON        CLEAR     66  64  93 CALM      29.95S FOG
DYERSBURG      CLEAR     64  52  63 CALM      29.97R
UNION CITY     CLEAR     63  59  88 CALM      29.95S
PARIS          CLEAR     57  54  88 CALM      29.97R
HUNTINGDON     CLEAR     63  59  87 CALM      29.96R
LEXINGTON      CLEAR     64  63  94 CALM      29.95R
SAVANNAH       CLEAR     63  63 100 CALM      29.96R
$$

TNZ008-025-027-028-033-062-065-066-300400-
NORTH MIDDLE TENNESSEE

CITY           SKY/WX    TMP DP  RH WIND       PRES   REMARKS
NASHVILLE      PTCLDY    70  61  73 CALM      29.96R
DICKSON        CLEAR     68  61  77 CALM      29.96S
PORTLAND       CLEAR     63  61  94 CALM      29.96S
CLARKSVILLE    CLEAR     67  59  75 CALM      29.95S
LEBANON        CLEAR     65  58  78 CALM      29.95R
SMYRNA         CLEAR     65  62  90 CALM      29.96S
MURFREESBORO   CLEAR     69  61  76 CALM      29.95S
COOKEVILLE     CLEAR     59  57  94 CALM      29.98S
LIVINGSTON     CLEAR     65  58  78 CALM      29.99S
GALLATIN       CLEAR     66  62  87 CALM      29.96S
CROSSVILLE     CLEAR     63  58  83 CALM      30.02S
$$

TNZ061-075-076-078-094-096-097-300400-
SOUTH MIDDLE TENNESSEE

CITY           SKY/WX    TMP DP  RH WIND       PRES   REMARKS
LEWISBURG      CLEAR     62  58  87 CALM      29.96S
FAYETTEVILLE   CLEAR     64  57  77 MISG      29.98R SQUALL
TULLAHOMA      CLEAR     61  57  88 CALM      29.99S
WINCHESTER     CLEAR     61  59  94 CALM      29.98F
MCMINNVILLE    CLEAR     61  61 100 CALM      29.98S
COLUMBIA       CLEAR     64  64 100 CALM      29.95S
SHELBYVILLE    CLEAR     64  61  88 CALM      29.98S
$$

TNZ017-018-042-046-047-300400-
NORTHEAST TENNESSEE

CITY           SKY/WX    TMP DP  RH WIND       PRES   REMARKS
TRI CITIES     PTCLDY    61  57  87 CALM      30.00S
ELIZABETHTON   CLEAR     57  55  94 CALM      30.02S
$$

TNZ012-013-036-069-073-074-300400-
CENTRAL EAST TENNESSEE

CITY           SKY/WX    TMP DP  RH WIND       PRES   REMARKS
KNOXVILLE      PTCLDY    66  61  84 CALM      29.97R
OAK RIDGE      CLEAR     65  63  93 CALM      29.99S
GATLINBURG     CLEAR     61  57  88 CALM      29.98S
$$

TNZ083-085-099-300400-
SOUTHEAST TENNESSEE

CITY           SKY/WX    TMP DP  RH WIND       PRES   REMARKS
CHATTANOOGA    CLEAR     68  63  84 CALM      29.97S
$$

SKY/WX REPORTED AS FAIR MEANS FEW OR NO CLOUDS BELOW
12 THOUSAND FEET.




USA.gov is the U.S. government's official web portal to all federal, state and local government web resources and services.